Weather History for Fort Payne, AL

Change the Weather History Date:

Sunday, March 2, 2014

  Actual Average (KRMG) Record (KRMG)
Temperature  
Mean Temperature 58 °F 48 °F  
Max Temperature 71 °F 60 °F 79 °F (2012)
Min Temperature 44 °F 36 °F 23 °F (2005)
Degree Days  
Heating Degree Days 8 17  
Month to date heating degree days 34  
Since 1 July heating degree days 2656  
Cooling Degree Days 0 0  
Month to date cooling degree days 0  
Year to date cooling degree days 0  
Growing Degree Days 8 (Base 50)    
Moisture  
Dew Point 48 °F    
Average Humidity 60    
Maximum Humidity 100    
Minimum Humidity 41    
Precipitation  
Precipitation 0.00 in 0.17 in 1.14 in (2012)
Month to date precipitation 0.34  
Year to date precipitation 10.03  
Sea Level Pressure  
Sea Level Pressure 30.06 in    
Wind  
Wind Speed 4 mph (SSW)    
Max Wind Speed 21 mph    
Max Gust Speed 25 mph    
Visibility 10 miles    
Events      
T = Trace of Precipitation, MM = Missing Value Source: NWS Daily Summary

Daily Weather History Graph

Daily Weather History Graph

Search for Another Location

Airport:

Trip Planner

Search our weather history database for the weather conditions in past years. The results will help you decide how hot, cold, wet, or windy it might be!

Date:

Astronomy

Mar. 02, 2014 Rise Set
Actual Time 6:10 AM CST 5:39 PM CST
Civil Twilight 5:45 AM CST 6:05 PM CST
Nautical Twilight 5:16 AM CST 6:34 PM CST
Astronomical Twilight 4:47 AM CST 7:03 PM CST
Moon 6:46 AM CST 7:28 PM CST
Length of Visible Light 12h 19m
Length of Day
11h 29m
Waxing Crescent, 3% of the Moon is Illuminated
Mar 2
Waxing Crescent
Mar 8
First Quarter
Mar 16
Full
Mar 23
Last Quarter
Mar 30
New

Hourly Weather History & Observations

Time (CST) Temp. Dew Point Humidity Pressure Visibility Wind Dir Wind Speed Gust Speed Precip Events Conditions
12:15 AM 50.0 °F 48.2 °F 94% 30.16 in 10.0 mi Calm Calm - N/A   Mostly Cloudy
12:35 AM 53.6 °F 42.8 °F 67% 30.16 in 10.0 mi Calm Calm - N/A   Mostly Cloudy
12:55 AM 53.6 °F 42.8 °F 67% 30.16 in 10.0 mi Calm Calm - N/A   Mostly Cloudy
1:15 AM 53.6 °F 42.8 °F 67% 30.16 in 10.0 mi WNW 4.6 mph - N/A   Mostly Cloudy
1:35 AM 51.8 °F 48.2 °F 88% 30.15 in 10.0 mi West 5.8 mph - N/A   Overcast
1:55 AM 50.0 °F 50.0 °F 100% 30.15 in 10.0 mi Calm Calm - N/A   Mostly Cloudy
2:15 AM 51.8 °F 46.4 °F 82% 30.14 in 10.0 mi Calm Calm - N/A   Scattered Clouds
2:35 AM 50.0 °F 50.0 °F 100% 30.14 in 10.0 mi Calm Calm - N/A   Scattered Clouds
2:55 AM 50.0 °F 50.0 °F 100% 30.14 in 10.0 mi Calm Calm - N/A   Mostly Cloudy
3:15 AM 50.0 °F 50.0 °F 100% 30.16 in 10.0 mi Calm Calm - N/A   Overcast
3:35 AM 51.8 °F - N/A% 30.15 in 10.0 mi Calm Calm - N/A   Overcast
3:55 AM 50.0 °F - N/A% 30.15 in 10.0 mi Calm Calm - N/A   Overcast
4:15 AM 50.0 °F - N/A% 30.15 in 10.0 mi Calm Calm - N/A   Overcast
4:35 AM 48.2 °F - N/A% 30.15 in 10.0 mi Calm Calm - N/A   Scattered Clouds
4:55 AM 48.2 °F - N/A% 30.16 in 10.0 mi Calm Calm - N/A   Clear
5:15 AM 46.4 °F - N/A% 30.16 in 10.0 mi Calm Calm - N/A   Mostly Cloudy
5:35 AM 46.4 °F - N/A% 30.16 in 10.0 mi Calm Calm - N/A   Scattered Clouds
5:55 AM 46.4 °F - N/A% 30.16 in 10.0 mi Calm Calm - N/A   Scattered Clouds
6:15 AM 44.6 °F - N/A% 30.15 in 10.0 mi Calm Calm - N/A   Mostly Cloudy
6:35 AM 44.6 °F - N/A% 30.16 in 10.0 mi Calm Calm - N/A   Overcast
6:55 AM 46.4 °F - N/A% 30.16 in 10.0 mi Calm Calm - N/A   Overcast
7:15 AM 48.2 °F - N/A% 30.16 in 10.0 mi Calm Calm - N/A   Overcast
7:35 AM 50.0 °F - N/A% 30.17 in 10.0 mi Calm Calm - N/A   Overcast
7:55 AM 53.6 °F - N/A% 30.17 in 10.0 mi Calm Calm - N/A   Overcast
8:15 AM 55.4 °F 51.8 °F 88% 30.16 in 10.0 mi Calm Calm - N/A   Scattered Clouds
8:35 AM 59.0 °F 48.2 °F 67% 30.17 in 10.0 mi WSW 5.8 mph - N/A   Scattered Clouds
8:55 AM 59.0 °F 53.6 °F 82% 30.17 in 10.0 mi SW 10.4 mph - N/A   Overcast
9:15 AM 60.8 °F 57.2 °F 88% 30.17 in 10.0 mi SW 10.4 mph - N/A   Overcast
9:35 AM 60.8 °F 55.4 °F 82% 30.17 in 10.0 mi SW 15.0 mph 18.4 mph N/A   Overcast
9:55 AM 60.8 °F 51.8 °F 72% 30.17 in 10.0 mi SW 17.3 mph - N/A   Overcast
10:15 AM 60.8 °F 48.2 °F 63% 30.17 in 10.0 mi SW 17.3 mph 24.2 mph N/A   Mostly Cloudy
10:35 AM 62.6 °F 46.4 °F 55% 30.16 in 10.0 mi SW 20.7 mph 24.2 mph N/A   Mostly Cloudy
10:55 AM 62.6 °F 46.4 °F 55% 30.15 in 10.0 mi SW 17.3 mph - N/A   Scattered Clouds
11:15 AM 64.4 °F 48.2 °F 56% 30.14 in 10.0 mi WSW 18.4 mph 25.3 mph N/A   Scattered Clouds
11:35 AM 64.4 °F 50.0 °F 59% 30.14 in 10.0 mi SW 15.0 mph - N/A   Mostly Cloudy
11:55 AM 64.4 °F 50.0 °F 59% 30.13 in 10.0 mi SSW 16.1 mph 19.6 mph N/A   Mostly Cloudy
12:15 PM 64.4 °F 50.0 °F 59% 30.11 in 10.0 mi SSW 8.1 mph 16.1 mph N/A   Mostly Cloudy
12:35 PM 68.0 °F 50.0 °F 52% 30.10 in 10.0 mi SSW 10.4 mph - N/A   Overcast
12:55 PM 68.0 °F 50.0 °F 52% 30.08 in 10.0 mi SSW 9.2 mph 17.3 mph N/A   Overcast
1:15 PM 68.0 °F 50.0 °F 52% 30.06 in 10.0 mi SSW 12.7 mph 21.9 mph N/A   Mostly Cloudy
1:35 PM 69.8 °F 48.2 °F 46% 30.05 in 10.0 mi SW 13.8 mph 21.9 mph N/A   Scattered Clouds
1:55 PM 71.6 °F 48.2 °F 43% 30.04 in 10.0 mi SSW 13.8 mph 25.3 mph N/A   Scattered Clouds
2:15 PM 71.6 °F 48.2 °F 43% 30.03 in 10.0 mi SW 18.4 mph 23.0 mph N/A   Mostly Cloudy
2:35 PM 71.6 °F 48.2 °F 43% 30.01 in 10.0 mi SSW 9.2 mph 18.4 mph N/A   Scattered Clouds
2:55 PM 71.6 °F 46.4 °F 41% 30.01 in 10.0 mi SSW 10.4 mph 18.4 mph N/A   Clear
3:15 PM 71.6 °F 46.4 °F 41% 30.00 in 10.0 mi SSW 12.7 mph 21.9 mph N/A   Scattered Clouds
3:35 PM 69.8 °F 46.4 °F 43% 29.99 in 10.0 mi SSW 9.2 mph - N/A   Scattered Clouds
3:55 PM 69.8 °F 46.4 °F 43% 29.98 in 10.0 mi South 11.5 mph 17.3 mph N/A   Mostly Cloudy
4:15 PM 71.6 °F 46.4 °F 41% 29.98 in 10.0 mi South 4.6 mph - N/A   Mostly Cloudy
4:35 PM 71.6 °F 46.4 °F 41% 29.97 in 10.0 mi SSW 9.2 mph - N/A   Scattered Clouds
4:55 PM 69.8 °F 46.4 °F 43% 29.98 in 10.0 mi South 6.9 mph - N/A   Clear
5:15 PM 68.0 °F 46.4 °F 46% 29.97 in 10.0 mi South 8.1 mph - N/A   Clear
5:35 PM 68.0 °F 46.4 °F 46% 29.97 in 10.0 mi South 8.1 mph - N/A   Clear
5:55 PM 66.2 °F 46.4 °F 49% 29.96 in 10.0 mi South 3.5 mph - N/A   Clear
6:15 PM 64.4 °F 46.4 °F 52% 29.96 in 10.0 mi South 3.5 mph - N/A   Clear
6:35 PM 64.4 °F 46.4 °F 52% 29.96 in 10.0 mi SSW 3.5 mph - N/A   Clear
6:55 PM 64.4 °F 46.4 °F 52% 29.95 in 10.0 mi South 3.5 mph - N/A   Clear
7:15 PM 64.4 °F 46.4 °F 52% 29.94 in 10.0 mi South 6.9 mph - N/A   Clear
7:35 PM 64.4 °F 46.4 °F 52% 29.94 in 10.0 mi South 4.6 mph - N/A   Clear
7:55 PM 62.6 °F 46.4 °F 55% 29.93 in 10.0 mi South 3.5 mph - N/A   Scattered Clouds
8:15 PM 62.6 °F 46.4 °F 55% 29.92 in 10.0 mi South 3.5 mph - N/A   Scattered Clouds
8:35 PM 64.4 °F 46.4 °F 52% 29.91 in 10.0 mi SSW 6.9 mph - N/A   Clear
8:55 PM 64.4 °F 46.4 °F 52% 29.92 in 10.0 mi SSW 4.6 mph - N/A   Clear
9:15 PM 62.6 °F 46.4 °F 55% 29.91 in 10.0 mi South 5.8 mph - N/A   Mostly Cloudy
9:35 PM 60.8 °F 51.8 °F 72% 29.91 in 10.0 mi Calm Calm - N/A   Overcast
9:55 PM 64.4 °F 46.4 °F 52% 29.90 in 10.0 mi SW 3.5 mph - N/A   Overcast
10:15 PM 62.6 °F 46.4 °F 55% 29.90 in 10.0 mi SW 4.6 mph - N/A   Overcast
10:35 PM 64.4 °F 44.6 °F 49% 29.89 in 10.0 mi SSW 6.9 mph - N/A   Overcast
10:55 PM 60.8 °F 46.4 °F 59% 29.88 in 10.0 mi SW 3.5 mph - N/A   Overcast
11:15 PM 62.6 °F 44.6 °F 52% 29.88 in 10.0 mi SSW 3.5 mph - N/A   Mostly Cloudy
11:35 PM 64.4 °F 44.6 °F 49% 29.87 in 10.0 mi SSW 9.2 mph - N/A   Overcast
11:55 PM 64.4 °F 48.2 °F 56% 29.85 in 10.0 mi SSW 8.1 mph 16.1 mph N/A   Overcast